"Pseudo-MPEC" for P10M5Op

Created 2019 Feb 19 10:18:06 UT using Find_Orb

Click here for an explanation of pseudo-MPECs

 
 Astrometry: 
     P10M5Op  C2019 02 04:nRAstrometryBdojd'Akkw((@redacted;UQ7?,e3fHD=bx1nAuF51
     P10M5Op  C2019 02 04cw?MclickX`sJ^M,fm%ux:^'(K)herehE%S9OVwH^V/1Zm^@3+EbF51
     P10M5Op  C2019 02 04)aAC^forlLe4LjhejqvA?4w(E1O]explanationRBw$K9[l\?9b^F51

Station data:
(F51) Pan-STARRS 1, Haleakala  (N20.707235 W156.255910)  US/Hawaii.
   Observers N. Primak, A. Schultz, S. Watters, J. Thiel, T. Goggia. Measurer
   PS1 Science Consortium. 1.8-m Ritchey-Chrétien + CCD.

Orbital elements:  P10M5Op
   Perihelion 2019 Jun 19.662170 +/- 61.5 TT = 15:53:31 (JD 2458654.162170)
Epoch 2019 Feb  4.0 TT = JDT 2458518.5   Earth MOID: 0.0015   Ve: 0.0174
M 192.15760895 +/- 110              (J2000 ecliptic)          AutoNEOCP
n   1.23720851 +/- 0.871            Peri.  174.58765 +/- 55
a   0.85935798 +/- 0.403            Node   130.79913 +/- 44
e   0.1622756 +/- 0.231             Incl.    0.35861 +/- 80
P   0.80/290.97d           H 27.9   G  0.15   U 12.6  SR
q 0.71990508 +/- 0.338    Q 0.99881088 +/- 10.7
From 3 observations 2019 Feb. 4 (37.1 min); mean residual 0".23
Residuals in arcseconds: 
190204 F51  .12-  .20+    190204 F51  .23+  .40-    190204 F51  .11-  .19+    

Ephemerides (geocentric):
Date (UTC) HH   RA              Dec         delta   r     elong  mag " sig PA
---- -- -- --  -------------   -----------  ------ ------ -----  --- ---- ---
2019 02 19 10  03 05 14.816   +21 03 12.16  .03049 .98341  79.6 23.9  39d 161
2019 02 19 11  03 05 01.860   +21 02 20.37  .03056 .98336  79.5 23.9  39d 161
2019 02 19 12  03 04 48.954   +21 01 28.71  .03062 .98331  79.4 23.9  39d 161
2019 02 19 13  03 04 36.097   +21 00 37.17  .03068 .98326  79.3 23.9  39d 161
2019 02 19 14  03 04 23.288   +20 59 45.75  .03074 .98321  79.2 23.9  39d 161
2019 02 19 15  03 04 10.528   +20 58 54.46  .03080 .98316  79.1 23.9  39d 161
2019 02 19 16  03 03 57.816   +20 58 03.28  .03086 .98311  79.0 23.9  39d 161
2019 02 19 17  03 03 45.151   +20 57 12.23  .03092 .98306  78.9 23.9  39d 161
2019 02 19 18  03 03 32.533   +20 56 21.30  .03099 .98300  78.8 23.9  39d 161
2019 02 19 19  03 03 19.963   +20 55 30.49  .03105 .98295  78.7 24.0  39d 161
2019 02 19 20  03 03 07.439   +20 54 39.80  .03111 .98290  78.7 24.0  39d 161
2019 02 19 21  03 02 54.961   +20 53 49.23  .03117 .98285  78.6 24.0  39d 161
2019 02 19 22  03 02 42.530   +20 52 58.77  .03123 .98280  78.5 24.0  39d 161
2019 02 19 23  03 02 30.144   +20 52 08.44  .03129 .98275  78.4 24.0  39d 161
2019 02 20 00  03 02 17.804   +20 51 18.22  .03136 .98270  78.3 24.0  39d 161
2019 02 20 01  03 02 05.508   +20 50 28.11  .03142 .98265  78.2 24.0  39d 161
2019 02 20 02  03 01 53.258   +20 49 38.13  .03148 .98260  78.1 24.0  39d 161
2019 02 20 03  03 01 41.052   +20 48 48.26  .03154 .98254  78.0 24.0  39d 161
2019 02 20 04  03 01 28.890   +20 47 58.50  .03160 .98249  77.9 24.0  39d 161
2019 02 20 05  03 01 16.772   +20 47 08.86  .03166 .98244  77.8 24.0  39d 161
2019 02 20 06  03 01 04.698   +20 46 19.34  .03172 .98239  77.7 24.0  39d 161
2019 02 20 07  03 00 52.667   +20 45 29.92  .03179 .98234  77.6 24.1  39d 161
2019 02 20 08  03 00 40.679   +20 44 40.62  .03185 .98229  77.6 24.1  39d 161
2019 02 20 09  03 00 28.733   +20 43 51.43  .03191 .98223  77.5 24.1  39d 161
2019 02 20 10  03 00 16.831   +20 43 02.36  .03197 .98218  77.4 24.1  39d 161
2019 02 20 11  03 00 04.970   +20 42 13.39  .03203 .98213  77.3 24.1  39d 161
2019 02 20 12  02 59 53.151   +20 41 24.54  .03209 .98208  77.2 24.1  39d 161
2019 02 20 13  02 59 41.374   +20 40 35.80  .03216 .98203  77.1 24.1  39d 161
2019 02 20 14  02 59 29.638   +20 39 47.16  .03222 .98197  77.0 24.1  39d 161
2019 02 20 15  02 59 17.944   +20 38 58.64  .03228 .98192  76.9 24.1  39d 161
2019 02 20 16  02 59 06.290   +20 38 10.22  .03234 .98187  76.8 24.1  39d 161
2019 02 20 17  02 58 54.676   +20 37 21.91  .03240 .98182  76.7 24.1  39d 161
2019 02 20 18  02 58 43.103   +20 36 33.72  .03246 .98176  76.7 24.1  39d 161
2019 02 20 19  02 58 31.570   +20 35 45.62  .03253 .98171  76.6 24.2  39d 161
2019 02 20 20  02 58 20.077   +20 34 57.64  .03259 .98166  76.5 24.2  39d 161
2019 02 20 21  02 58 08.623   +20 34 09.76  .03265 .98161  76.4 24.2  39d 161
2019 02 20 22  02 57 57.208   +20 33 21.98  .03271 .98155  76.3 24.2  39d 161
2019 02 20 23  02 57 45.832   +20 32 34.31  .03277 .98150  76.2 24.2  39d 161
2019 02 21 00  02 57 34.495   +20 31 46.75  .03284 .98145  76.1 24.2  39d 161
2019 02 21 01  02 57 23.197   +20 30 59.29  .03290 .98139  76.0 24.2  39d 161
2019 02 21 02  02 57 11.936   +20 30 11.93  .03296 .98134  76.0 24.2  39d 161
2019 02 21 03  02 57 00.714   +20 29 24.68  .03302 .98129  75.9 24.2  39d 161
2019 02 21 04  02 56 49.529   +20 28 37.53  .03308 .98123  75.8 24.2  39d 161
2019 02 21 05  02 56 38.382   +20 27 50.48  .03314 .98118  75.7 24.2  39d 161
2019 02 21 06  02 56 27.272   +20 27 03.53  .03321 .98113  75.6 24.2  39d 161
2019 02 21 07  02 56 16.199   +20 26 16.68  .03327 .98107  75.5 24.3  39d 161
2019 02 21 08  02 56 05.163   +20 25 29.94  .03333 .98102  75.4 24.3  39d 161
2019 02 21 09  02 55 54.164   +20 24 43.29  .03339 .98097  75.3 24.3  39d 161